Location: Newark
(31.5350°N, 35.0986°E)
Time: 15:54:52
(UTC+00:00)

Vanguard 1 - Pass Details

Date: 25 September 2019
Orbit: 653 x 3830 km, 34.3° (Epoch: 14 October)

Event Time Altitude Azimuth Distance (km) Brightness Sun altitude
Rises 21:21:27 0° 232° (SW) 6,631 - -59.4°
Reaches altitude 10° 21:25:18 10° 230° (SW) 5,935 - -59.4°
Maximum altitude 21:45:53 71° 151° (SSE) 3,936 - -59.3°
Exits shadow 21:54:57 48° 86° (E) 4,498 13.1 -59.0°
Drops below altitude 10° 22:08:24 10° 73° (ENE) 6,413 14.3 -58.2°
Sets 22:12:45 0° 71° (ENE) 7,161 14.7 -57.9°
